GW7165 Weather Reports


time (UTC)temp
F
wind
direction
speed
knots
gust
knots
rain 1hr
in
rain 24hr
in
rain mn
in
humidity
%
barometer
mb
20260506044815 66 342 0.9 2.6 0.00 0.00 0.00 77 1008.6
20260506044313 67 56 2.6 4.3 0.00 0.00 0.00 77 1008.2
20260506043810 67 31 6.1 7.8 0.00 0.00 0.00 76 1008.6
20260506043307 68 318 2.6 5.2 0.00 0.00 0.00 76 1008.5
20260506042806 68 251 1.7 2.6 0.00 0.00 0.00 76 1008.5
20260506042305 68 269 2.6 4.3 0.00 0.00 0.00 75 1008.0
20260506041803 69 1 4.3 7.0 0.00 0.00 0.00 75 1008.5
20260506041259 69 76 1.7 2.6 0.00 0.00 0.00 74 1008.6
20260506040756 69 143 0.0 0.9 0.00 0.00 0.00 74 1008.2
20260506040254 69 106 0.0 0.0 0.00 0.00 0.00 74 1007.9
20260506035750 69 47 1.7 1.7 0.00 0.00 0.00 74 1007.9
20260506035247 69 44 0.0 0.9 0.00 0.00 0.00 74 1007.4
20260506034744 69 58 0.9 0.9 0.00 0.00 0.00 73 1007.4
20260506034241 69 10 5.2 7.0 0.00 0.00 0.00 73 1007.6
20260506033738 69 354 4.3 5.2 0.00 0.00 0.00 73 1007.6
20260506033236 69 292 1.7 1.7 0.00 0.00 0.00 73 1007.4
20260506032732 70 345 6.1 8.7 0.00 0.00 0.00 72 1007.4
20260506032229 70 246 1.7 2.6 0.00 0.00 0.00 72 1007.3
20260506031726 70 328 2.6 5.2 0.00 0.00 0.00 71 1007.1
20260506031223 70 150 0.0 0.9 0.00 0.00 0.00 71 1007.3
20260506030721 70 125 0.9 1.7 0.00 0.00 0.00 70 1007.2
20260506030219 70 161 0.0 0.9 0.00 0.00 0.00 70 1006.9
20260506025715 71 344 1.7 2.6 0.00 0.00 0.00 70 1006.8
20260506025212 71 356 4.3 6.1 0.00 0.00 0.00 69 1007.0
20260506024709 71 248 0.0 0.0 0.00 0.00 0.00 69 1006.9
20260506024205 72 310 3.5 5.2 0.00 0.00 0.00 69 1006.7
20260506023701 72 81 0.0 0.0 0.00 0.00 0.00 69 1006.6
20260506023159 72 281 1.7 4.3 0.00 0.00 0.00 69 1006.3
20260506022656 73 344 0.0 0.0 0.00 0.00 0.00 69 1006.3
20260506022153 73 246 0.0 0.0 0.00 0.00 0.00 68 1006.1
20260506021651 73 45 0.0 0.9 0.00 0.00 0.00 68 1006.1
20260506021148 73 307 0.9 1.7 0.00 0.00 0.00 68 1005.8
20260506020645 74 308 2.6 4.3 0.00 0.00 0.00 68 1005.7
20260506020143 74 252 1.7 1.7 0.00 0.00 0.00 68 1005.1
20260506015640 74 350 3.5 5.2 0.00 0.00 0.00 67 1005.6
20260506015137 74 155 0.0 0.9 0.00 0.00 0.00 67 1005.4
20260506014635 74 68 0.0 0.9 0.00 0.00 0.00 67 1005.3
20260506014130 74 45 0.9 0.9 0.00 0.00 0.00 67 1005.0
20260506013629 74 120 0.0 0.9 0.00 0.00 0.00 67 1005.3
20260506013125 75 315 0.9 2.6 0.00 0.00 0.00 67 1005.2
20260506012621 75 325 3.5 6.1 0.00 0.00 0.00 67 1004.9
20260506012118 76 38 3.5 4.3 0.00 0.00 0.00 66 1004.6
20260506011616 76 343 0.0 0.9 0.00 0.00 0.00 66 1004.8
20260506011112 77 88 0.0 1.7 0.00 0.00 0.00 65 1004.8
20260506010611 78 332 4.3 6.1 0.00 0.00 0.00 64 1005.1
20260506010108 78 27 3.5 4.3 0.00 0.00 0.00 63 1004.6
20260506005605 79 329 2.6 4.3 0.00 0.00 0.00 63 1004.7
20260506005101 79 340 0.0 0.0 0.00 0.00 0.00 63 1004.4
20260506004558 79 60 1.7 1.7 0.00 0.00 0.00 62 1004.5
20260506004055 79 342 1.7 2.6 0.00 0.00 0.00 62 1004.5
20260506003551 79 358 2.6 4.3 0.00 0.00 0.00 62 1004.3
20260506003047 80 32 0.9 2.6 0.00 0.00 0.00 62 1004.5
20260506002543 80 229 0.9 1.7 0.00 0.00 0.00 62 1004.5
20260506002039 81 49 0.9 1.7 0.00 0.00 0.00 61 1004.4
20260506001536 81 329 2.6 5.2 0.00 0.00 0.00 60 1004.2
20260506001033 82 219 1.7 2.6 0.00 0.00 0.00 59 1003.8
20260506000530 82 343 0.9 0.9 0.00 0.00 0.00 59 1004.2
20260506000028 83 230 0.0 0.9 0.00 0.00 0.00 59 1004.2
20260505235526 83 58 0.0 0.9 0.00 0.00 0.00 59 1003.7
20260505235022 83 312 1.7 2.6 0.00 0.00 0.00 58 1003.8
20260505234519 84 355 0.9 1.7 0.00 0.00 0.00 57 1003.7
20260505234016 85 331 2.6 4.3 0.00 0.00 0.00 55 1003.7
20260505233514 86 302 2.6 2.6 0.00 0.00 0.00 53 1003.6
20260505233011 86 187 0.0 0.0 0.00 0.00 0.00 51 1003.3
20260505232509 86 328 0.0 0.0 0.00 0.00 0.00 50 1003.5
20260505232006 86 176 0.9 1.7 0.00 0.00 0.00 50 1003.3
20260505231503 88 293 2.6 4.3 0.00 0.00 0.00 49 1003.3
20260505231001 89 358 3.5 4.3 0.00 0.00 0.00 59 1003.1
20260505230458 89 241 0.9 0.9 0.00 0.00 0.00 59 1003.0
20260505225954 89 162 0.9 1.7 0.00 0.00 0.00 58 1002.6
20260505225452 89 121 0.0 0.0 0.00 0.00 0.00 58 1002.5
20260505224948 90 126 0.0 0.9 0.00 0.00 0.00 57 1002.4
20260505224445 91 143 0.0 0.0 0.00 0.00 0.00 57 1002.2
20260505223942 93 181 0.0 0.9 0.00 0.00 0.00 52 1002.6
20260505223439 93 151 0.0 0.0 0.00 0.00 0.00 49 1002.7
20260505222935 94 145 0.0 0.0 0.00 0.00 0.00 47 1002.4
20260505222431 93 149 0.0 0.0 0.00 0.00 0.00 48 1002.4
20260505221927 93 268 0.0 0.9 0.00 0.00 0.00 48 1002.5
20260505221425 93 173 0.0 0.0 0.00 0.00 0.00 49 1002.5
20260505220922 92 145 0.0 0.0 0.00 0.00 0.00 48 1002.4
20260505220419 93 123 2.6 2.6 0.00 0.00 0.00 49 1002.4
20260505215916 93 161 0.9 1.7 0.00 0.00 0.00 48 1002.4
20260505215414 93 147 0.0 0.0 0.00 0.00 0.00 49 1002.5
20260505214912 93 142 0.0 0.0 0.00 0.00 0.00 50 1002.3
20260505214409 93 147 0.9 1.7 0.00 0.00 0.00 49 1002.6
20260505213907 91 133 0.0 0.9 0.00 0.00 0.00 52 1002.8
20260505213404 92 72 0.0 0.0 0.00 0.00 0.00 50 1002.5
20260505212900 92 129 0.9 1.7 0.00 0.00 0.00 51 1002.5
20260505212357 92 126 0.0 0.9 0.00 0.00 0.00 50 1002.7
20260505211853 91 152 0.9 1.7 0.00 0.00 0.00 52 1002.8
20260505211351 91 204 0.9 2.6 0.00 0.00 0.00 51 1002.8
20260505210847 91 143 0.9 1.7 0.00 0.00 0.00 52 1003.1
20260505210344 91 131 0.9 1.7 0.00 0.00 0.00 53 1002.8
20260505205841 91 143 0.0 0.0 0.00 0.00 0.00 54 1003.2
20260505205340 91 140 0.9 1.7 0.00 0.00 0.00 53 1003.2
20260505204836 91 118 2.6 4.3 0.00 0.00 0.00 53 1003.1
20260505204334 90 204 0.9 0.9 0.00 0.00 0.00 55 1002.8
20260505203831 91 133 0.0 0.0 0.00 0.00 0.00 55 1003.1
20260505203327 90 106 0.9 1.7 0.00 0.00 0.00 55 1003.4
20260505202824 90 133 0.9 1.7 0.00 0.00 0.00 55 1003.2
20260505202320 90 100 0.9 2.6 0.00 0.00 0.00 55 1003.5
20260505201817 91 196 0.9 1.7 0.00 0.00 0.00 54 1003.3
20260505201314 91 164 0.9 4.3 0.00 0.00 0.00 54 1003.7
20260505200813 90 208 1.7 4.3 0.00 0.00 0.00 56 1003.8
20260505200309 89 112 0.0 0.0 0.00 0.00 0.00 56 1003.7
20260505195804 90 333 1.7 2.6 0.00 0.00 0.00 56 1003.8
20260505195305 89 165 0.0 0.9 0.00 0.00 0.00 60 1003.7
20260505194759 90 127 1.7 2.6 0.00 0.00 0.00 58 1003.9
20260505194256 89 184 0.0 0.9 0.00 0.00 0.00 58 1003.9
20260505193757 89 162 2.6 4.3 0.00 0.00 0.00 57 1003.6
20260505193255 89 342 0.9 1.7 0.00 0.00 0.00 59 1003.8
20260505192753 88 158 1.7 4.3 0.00 0.00 0.00 60 1003.8
20260505192250 87 176 0.0 0.9 0.00 0.00 0.00 62 1003.8
20260505191748 88 158 0.0 1.7 0.00 0.00 0.00 62 1003.9
20260505191246 88 103 2.6 5.2 0.00 0.00 0.00 61 1003.8
20260505190742 87 159 0.9 1.7 0.00 0.00 0.00 63 1003.7
20260505190237 87 122 0.0 0.0 0.00 0.00 0.00 62 1003.8
20260505185734 88 205 1.7 4.3 0.00 0.00 0.00 62 1003.7
20260505185231 86 139 4.3 5.2 0.00 0.00 0.00 63 1004.0
20260505184726 87 144 1.7 2.6 0.00 0.00 0.00 63 1003.8
20260505184224 87 127 0.0 0.0 0.00 0.00 0.00 63 1004.1
20260505183720 86 178 0.9 1.7 0.00 0.00 0.00 64 1004.2
20260505183218 87 126 0.0 0.0 0.00 0.00 0.00 62 1003.9
20260505182714 86 240 0.0 0.9 0.00 0.00 0.00 63 1004.0
20260505182211 86 161 2.6 4.3 0.00 0.00 0.00 64 1004.4
20260505181708 85 126 0.0 0.0 0.00 0.00 0.00 66 1004.2
20260505181206 85 230 0.0 0.0 0.00 0.00 0.00 64 1004.2
20260505180701 85 160 3.5 5.2 0.00 0.00 0.00 65 1004.0
20260505180159 86 149 1.7 6.1 0.00 0.00 0.00 65 1004.0
20260505175654 85 304 0.0 0.9 0.00 0.00 0.00 65 1004.3
20260505175151 85 163 0.0 0.0 0.00 0.00 0.00 67 1004.3
20260505174648 85 157 1.7 2.6 0.00 0.00 0.00 66 1004.3
20260505174144 85 208 0.9 0.9 0.00 0.00 0.00 66 1004.3
20260505173641 84 225 1.7 2.6 0.00 0.00 0.00 67 1004.1
20260505173137 84 87 3.5 6.1 0.00 0.00 0.00 66 1004.6
20260505172635 83 213 0.9 1.7 0.00 0.00 0.00 68 1004.5
20260505172132 83 106 1.7 2.6 0.00 0.00 0.00 68 1004.3
20260505171631 83 78 2.6 4.3 0.00 0.00 0.00 67 1004.2
20260505171129 83 118 1.7 5.2 0.00 0.00 0.00 68 1004.2
20260505170626 83 125 1.7 5.2 0.00 0.00 0.00 67 1004.2
20260505170122 84 290 0.9 2.6 0.00 0.00 0.00 66 1004.4
20260505165617 83 210 0.9 1.7 0.00 0.00 0.00 68 1004.3
20260505165114 83 140 2.6 4.3 0.00 0.00 0.00 68 1004.4
20260505164609 82 254 1.7 1.7 0.00 0.00 0.00 70 1004.3
20260505164107 82 176 0.0 0.9 0.00 0.00 0.00 70 1004.1
20260505163606 83 165 4.3 7.0 0.00 0.00 0.00 69 1004.1
20260505163102 82 179 7.8 13.0 0.00 0.00 0.00 70 1004.4
20260505162600 82 50 0.9 0.9 0.00 0.00 0.00 71 1004.2
20260505162058 80 83 0.9 1.7 0.00 0.00 0.00 72 1004.1
20260505161554 81 127 0.0 0.0 0.00 0.00 0.00 72 1004.1
20260505161052 80 126 1.7 4.3 0.00 0.00 0.00 73 1004.1
20260505160549 80 149 6.1 9.6 0.00 0.00 0.00 72 1004.1
20260505153026 78 136 6.1 11.3 0.00 0.00 0.00 76 1004.0
20260505152523 78 153 2.6 5.2 0.00 0.00 0.00 76 1004.1
20260505152018 79 161 0.9 2.6 0.00 0.00 0.00 76 1004.4
20260505151514 78 158 1.7 2.6 0.00 0.00 0.00 75 1004.3
20260505151011 78 259 0.9 1.7 0.00 0.00 0.00 77 1004.2
20260505150508 77 142 0.0 0.9 0.00 0.00 0.00 78 1004.1
20260505140433 74 161 1.7 1.7 0.00 0.00 0.00 83 1003.8
20260505124846 71 169 2.6 4.3 0.00 0.00 0.00 88 1003.5
20260505124343 70 160 3.5 5.2 0.00 0.00 0.00 88 1003.4
20260505123839 70 176 0.9 1.7 0.00 0.00 0.00 89 1003.3
20260505123336 70 182 2.6 4.3 0.00 0.00 0.00 89 1003.2
20260505122832 70 159 3.5 5.2 0.00 0.00 0.00 89 1003.5
20260505122329 70 143 0.9 0.9 0.00 0.00 0.00 89 1003.1
20260505121826 70 218 2.6 2.6 0.00 0.00 0.00 89 1003.2
20260505121323 70 123 3.5 5.2 0.00 0.00 0.00 89 1003.0
20260505120819 70 164 1.7 1.7 0.00 0.00 0.00 90 1002.6
20260505120315 70 208 1.7 1.7 0.00 0.00 0.00 90 1002.6
20260505115814 69 138 1.7 2.6 0.00 0.00 0.00 90 1003.0
20260505115311 69 264 2.6 2.6 0.00 0.00 0.00 90 1003.3
20260505114809 69 279 2.6 2.6 0.00 0.00 0.00 90 1003.3
20260505114305 69 210 1.7 2.6 0.00 0.00 0.00 89 1003.4
20260505113802 69 221 3.5 4.3 0.00 0.00 0.00 90 1002.8
20260505113258 69 134 2.6 2.6 0.00 0.00 0.00 89 1003.1
20260505112754 70 139 1.7 2.6 0.00 0.00 0.00 89 1003.1
20260505112252 70 100 1.7 2.6 0.00 0.00 0.00 89 1003.0
20260505111752 70 169 1.7 1.7 0.00 0.00 0.00 89 1002.8
20260505111248 70 172 3.5 4.3 0.00 0.00 0.00 89 1003.1
20260505110744 70 148 0.9 0.9 0.00 0.00 0.00 89 1003.1
20260505110243 70 160 0.9 1.7 0.00 0.00 0.00 89 1003.2
20260505102218 71 149 2.6 2.6 0.00 0.00 0.00 87 1002.5
20260505101716 71 130 2.6 2.6 0.00 0.00 0.00 87 1002.7
20260505101212 71 145 2.6 2.6 0.00 0.00 0.00 87 1002.8
20260505100708 71 122 2.6 5.2 0.00 0.00 0.00 87 1003.1
20260505100206 71 108 4.3 6.1 0.00 0.00 0.00 87 1002.8
20260505095701 71 155 0.0 0.0 0.00 0.00 0.00 87 1003.2
20260505095159 71 160 1.7 1.7 0.00 0.00 0.00 87 1003.1
20260505094654 71 185 1.7 1.7 0.00 0.00 0.00 87 1003.3
20260505094151 71 167 1.7 1.7 0.00 0.00 0.00 87 1002.8
20260505093648 71 85 1.7 2.6 0.00 0.00 0.00 87 1003.4
20260505093145 71 157 1.7 4.3 0.00 0.00 0.00 87 1003.2
20260505092642 71 148 1.7 1.7 0.00 0.00 0.00 87 1003.3
20260505092141 71 137 0.9 0.9 0.00 0.00 0.00 87 1003.3
20260505091637 71 167 0.9 1.7 0.00 0.00 0.00 87 1003.7
20260505091135 71 188 2.6 2.6 0.00 0.00 0.00 87 1003.7
20260505090632 71 135 1.7 1.7 0.00 0.00 0.00 87 1003.5
20260505090131 71 135 4.3 5.2 0.00 0.00 0.00 87 1003.7
20260505085628 71 211 4.3 7.8 0.00 0.00 0.00 86 1003.7
20260505085126 71 154 4.3 7.0 0.00 0.00 0.00 86 1003.8
20260505084623 71 96 1.7 1.7 0.00 0.00 0.00 86 1003.6
20260505084122 71 123 0.9 1.7 0.00 0.00 0.00 86 1003.3
20260505083619 71 155 0.9 0.9 0.00 0.00 0.00 86 1003.6
20260505083115 71 144 8.7 14.8 0.00 0.00 0.00 86 1003.9
20260505082611 71 155 2.6 4.3 0.00 0.00 0.00 86 1003.7
20260505082108 71 144 3.5 6.1 0.00 0.00 0.00 86 1003.6
20260505081604 71 164 2.6 2.6 0.00 0.00 0.00 86 1003.4
20260505081102 71 152 2.6 4.3 0.00 0.00 0.00 86 1003.4
20260505080557 71 236 3.5 4.3 0.00 0.00 0.00 86 1003.7
20260505080055 71 76 0.9 1.7 0.00 0.00 0.00 85 1003.8
20260505075550 71 170 0.9 1.7 0.00 0.00 0.00 85 1003.7
20260505075047 71 173 3.5 4.3 0.00 0.00 0.00 85 1003.9
20260505074544 71 236 2.6 5.2 0.00 0.00 0.00 85 1004.0
20260505074041 71 131 4.3 5.2 0.00 0.00 0.00 85 1004.0
20260505073539 71 168 7.0 13.9 0.00 0.00 0.00 84 1003.8
20260505073037 72 154 2.6 5.2 0.00 0.00 0.00 84 1003.9
20260505072532 72 185 2.6 2.6 0.00 0.00 0.00 84 1004.0
20260505072029 72 128 3.5 7.0 0.00 0.00 0.00 83 1004.2
20260505071524 72 139 1.7 2.6 0.00 0.00 0.00 83 1004.2
20260505071023 72 148 1.7 2.6 0.00 0.00 0.00 83 1004.2
20260505070520 72 174 2.6 2.6 0.00 0.00 0.00 83 1004.3
20260505070016 72 208 1.7 2.6 0.00 0.00 0.00 82 1004.7
20260505065512 72 132 2.6 4.3 0.00 0.00 0.00 82 1004.7
20260505065009 72 159 5.2 7.8 0.00 0.00 0.00 82 1004.5
20260505064506 72 203 1.7 2.6 0.00 0.00 0.00 82 1004.6
20260505064004 72 150 2.6 5.2 0.00 0.00 0.00 81 1004.8
20260505063501 73 141 0.9 1.7 0.00 0.00 0.00 81 1004.8
20260505062956 73 175 0.9 0.9 0.00 0.00 0.00 80 1004.7
20260505062454 73 180 1.7 2.6 0.00 0.00 0.00 80 1004.7
20260505061951 73 191 0.9 0.9 0.00 0.00 0.00 80 1004.7
20260505061449 73 162 0.9 1.7 0.00 0.00 0.00 79 1004.8
20260505060946 73 106 1.7 2.6 0.00 0.00 0.00 79 1004.6
20260505060443 73 137 0.9 0.9 0.00 0.00 0.00 78 1005.0
20260505055939 73 219 3.5 5.2 0.00 0.00 0.00 78 1004.9
20260505055435 73 147 4.3 7.0 0.00 0.00 0.00 77 1004.5
20260505054932 73 216 2.6 4.3 0.00 0.00 0.00 77 1005.0
20260505054430 74 203 5.2 7.0 0.00 0.00 0.00 76 1004.7
20260505053927 74 142 1.7 2.6 0.00 0.00 0.00 76 1004.8
20260505053424 74 136 6.1 7.8 0.00 0.00 0.00 75 1004.7
20260505052921 74 142 5.2 7.8 0.00 0.00 0.00 75 1004.7
20260505052418 74 152 5.2 9.6 0.00 0.00 0.00 75 1004.8
20260505051915 74 82 2.6 2.6 0.00 0.00 0.00 75 1004.8
20260505051412 74 237 2.6 5.2 0.00 0.00 0.00 75 1005.1
20260505050910 74 210 4.3 9.6 0.00 0.00 0.00 75 1005.1
20260505050408 74 141 3.5 4.3 0.00 0.00 0.00 74 1005.2